Regional Weather Roundup
Issued by NWS

Home | Current Version | Previous Version | Text Only | Print | Product List | Glossary Off
Versions: 1 2 3 4 5 6 7 8 9 10 11 12 13 14 15 16 17 18 19 20 21 22 23 24 25 26 27 28 29 30 31 32 33 34 35 36 37 38 39 40 41 42 43 44 45 46 47 48 49 50

000
ASUS43 KFSD 091710
RWRSD

WEATHER ROUNDUP FOR SOUTH DAKOTA
NATIONAL WEATHER SERVICE SIOUX FALLS SD
1200 PM CDT WED JUL 09 2014

NOTE: "FAIR" INDICATES FEW OR NO CLOUDS BELOW 12,000 FEET WITH NO
SIGNIFICANT WEATHER AND/OR OBSTRUCTIONS TO VISIBILITY.


SDZ001>005-009-010-012>017-091800-
NORTHWEST AND NORTH CENTRAL SOUTH DAKOTA

CITY           SKY/WX    TMP DP  RH WIND       PRES   REMARKS
BUFFALO          N/A     78  56  46 S13       29.98F
FAITH            N/A     77  53  43 SE13      30.05F
MOBRIDGE       SUNNY     74  59  59 SE5       30.03S HAZE
$$

SDZ012>016-024>037-041>051-057-063-072>074-091800-
SOUTHWEST AND SOUTH CENTRAL SOUTH DAKOTA

CITY           SKY/WX    TMP DP  RH WIND       PRES   REMARKS
RAPID CTY ARPT SUNNY     74  57  55 SE7       30.06F
PIERRE         SUNNY     77  52  41 S3        30.03F
CUSTER         SUNNY     68  50  52 E12       30.15F
ELLSWORTH AFB  SUNNY     75  55  49 SE9       30.06F
PHILIP         CLOUDY    76  56  49 SE8       30.04F
PINE RIDGE     SUNNY     79  58  48 SE14      30.01F
WINNER         PTSUNNY   80  53  39 SE7       30.05F
$$

SDZ004>011-016>023-039-040-091800-
NORTHEAST SOUTH DAKOTA

CITY           SKY/WX    TMP DP  RH WIND       PRES   REMARKS
ABERDEEN       MOSUNNY   72  57  59 NE6       30.05S
WATERTOWN      MOSUNNY   73  54  51 VRB3      30.05S
SISSETON         N/A     73  57  57 NE8       30.04R
$$

SDZ017-020-022-023-036>040-048>070-091800-
SOUTHEAST SOUTH DAKOTA

CITY           SKY/WX    TMP DP  RH WIND       PRES   REMARKS
SIOUX FALLS    MOSUNNY   77  56  48 SW6       30.05S
HURON          SUNNY     77  57  50 CALM      30.04S
CHAMBERLAIN    SUNNY     77  55  46 CALM      30.05F
MITCHELL       SUNNY     79  58  48 CALM      30.05S
YANKTON          N/A     75  61  60 W3        30.06
$$

ABBREVIATIONS USED IN REMARKS
   TC - TEMPERATURE IN CELSIUS
  WCI - WIND CHILL INDEX
   HX - HEAT INDEX
  VSB - VISIBILITY



USA.gov is the U.S. government's official web portal to all federal, state and local government web resources and services.